User: anonymous   Login
Location: NJAA Observatory
(40.6819°N, 74.8979°W)
Time: 12:57:41
(UTC-04:00)
Language:

Cosmos 2263 Rocket - Orbit

View from above orbital plane
View from above orbital plane
View from above satellite
View from above satellite

Ground track
Ground track

The orbit data is extracted from the following two-line orbital elements,

1 22803U 93059B   15244.85576944 -.00000177  00000-0 -64248-4 0  9990
2 22803  70.9903 188.2126 0019392 298.8186  61.0990 14.16721508135604
Epoch (UTC): 01 September 2015 20:32:18
Eccentricity: 0.0019392
inclination: 70.9903°
perigee height: 822 km
apogee height: 850 km
right ascension of ascending node: 188.2126°
argument of perigee: 298.8186°
revolutions per day: 14.16721508
mean anomaly at epoch: 61.0990°
orbit number at epoch: 13560

The dashed part of the orbit path shows where the satellite is in the earth's shadow,  

DLR